2016-01-02 00:03:01 r, 17.72m,0000000007Hz,0000063552c,0000000.138s, 010.3C,00002195
2016-01-02 00:12:59 r, 17.73m,0000000007Hz,0000064338c,0000000.140s, 010.3C,00002195
2016-01-02 00:22:59 r, 17.73m,0000000008Hz,0000064286c,0000000.140s, 010.3C,00002195
2016-01-02 00:33:02 r, 17.74m,0000000007Hz,0000064985c,0000000.141s, 010.3C,00002195
2016-01-02 00:42:59 r, 17.73m,0000000007Hz,0000064407c,0000000.140s, 010.3C,00002195
2016-01-02 00:52:59 r, 17.74m,0000000008Hz,0000065030c,0000000.141s, 010.3C,00002195
2016-01-02 01:03:02 r, 17.73m,0000000008Hz,0000064436c,0000000.140s, 010.3C,00002195
2016-01-02 01:12:59 r, 17.74m,0000000007Hz,0000064563c,0000000.140s, 010.3C,00002195
2016-01-02 01:22:59 r, 17.73m,0000000008Hz,0000064443c,0000000.140s, 010.3C,00002195
2016-01-02 01:33:01 r, 17.73m,0000000008Hz,0000064343c,0000000.140s, 010.3C,00002195
2016-01-02 01:42:59 r, 17.73m,0000000007Hz,0000064341c,0000000.140s, 010.3C,00002195
2016-01-02 01:52:59 r, 17.74m,0000000007Hz,0000064852c,0000000.141s, 010.3C,00002195
2016-01-02 02:03:01 r, 17.72m,0000000007Hz,0000063724c,0000000.138s, 010.3C,00002195
2016-01-02 02:12:59 r, 17.74m,0000000007Hz,0000064316c,0000000.140s, 009.9C,00002195
2016-01-02 02:22:59 r, 17.74m,0000000007Hz,0000064292c,0000000.140s, 009.6C,00002195
2016-01-02 02:33:02 r, 17.72m,0000000008Hz,0000063566c,0000000.138s, 009.6C,00002195
2016-01-02 02:42:59 r, 17.73m,0000000008Hz,0000064040c,0000000.139s, 009.6C,00002195
2016-01-02 02:53:00 r, 17.73m,0000000007Hz,0000064177c,0000000.139s, 009.3C,00002195
2016-01-02 03:03:02 r, 17.72m,0000000007Hz,0000063384c,0000000.138s, 009.3C,00002195
2016-01-02 03:12:59 r, 17.72m,0000000007Hz,0000063380c,0000000.138s, 009.3C,00002195
2016-01-02 03:22:59 r, 17.73m,0000000007Hz,0000064104c,0000000.139s, 009.6C,00002195
2016-01-02 03:33:00 r, 17.72m,0000000007Hz,0000063391c,0000000.138s, 009.6C,00002195
2016-01-02 03:43:01 r, 17.72m,0000000008Hz,0000063432c,0000000.138s, 009.6C,00002195
2016-01-02 03:52:59 r, 17.72m,0000000007Hz,0000063408c,0000000.138s, 009.9C,00002195
2016-01-02 04:03:01 r, 17.72m,0000000007Hz,0000063391c,0000000.138s, 009.9C,00002195
2016-01-02 04:12:59 r, 17.72m,0000000007Hz,0000063363c,0000000.138s, 009.6C,00002195
2016-01-02 04:22:59 r, 17.72m,0000000007Hz,0000063285c,0000000.137s, 009.6C,00002195
2016-01-02 04:32:59 r, 17.51m,0000000008Hz,0000052298c,0000000.113s, 009.6C,00002195
2016-01-02 04:43:00 r, 17.54m,0000000008Hz,0000054015c,0000000.117s, 009.6C,00002195
2016-01-02 04:52:59 r, 17.67m,0000000007Hz,0000060550c,0000000.131s, 009.6C,00002195
2016-01-02 05:03:02 r, 17.71m,0000000008Hz,0000062970c,0000000.137s, 009.6C,00002195
2016-01-02 05:13:00 r, 17.71m,0000000008Hz,0000063115c,0000000.137s, 009.6C,00002195
2016-01-02 05:22:59 r, 17.70m,0000000007Hz,0000062354c,0000000.135s, 009.6C,00002195
2016-01-02 05:33:02 r, 17.69m,0000000007Hz,0000061678c,0000000.134s, 009.9C,00002195
2016-01-02 05:43:00 r, 17.69m,0000000008Hz,0000061460c,0000000.133s, 009.9C,00002195
2016-01-02 05:53:00 r, 17.69m,0000000007Hz,0000061921c,0000000.134s, 009.9C,00002195
2016-01-02 06:03:00 r, 17.68m,0000000008Hz,0000061440c,0000000.133s, 010.3C,00002195
2016-01-02 06:13:02 r, 17.68m,0000000008Hz,0000061389c,0000000.133s, 010.3C,00002195
2016-01-02 06:22:59 r, 17.68m,0000000008Hz,0000061343c,0000000.133s, 010.3C,00002195
2016-01-02 06:33:01 r, 17.67m,0000000008Hz,0000060710c,0000000.132s, 009.9C,00002195
2016-01-02 06:43:00 r, 17.67m,0000000008Hz,0000060433c,0000000.131s, 009.9C,00002195
2016-01-02 06:52:59 r, 17.65m,0000000007Hz,0000059861c,0000000.130s, 009.9C,00002195
2016-01-02 07:03:02 r, 17.61m,0000000008Hz,0000057325c,0000000.124s, 009.6C,00002195
2016-01-02 07:13:00 r, 17.39m,0000000010Hz,0000047087c,0000000.102s, 009.6C,00002195
2016-01-02 07:22:59 r, 16.84m,0000000016Hz,0000028306c,0000000.061s, 009.6C,00002195
2016-01-02 07:33:02 r, 15.75m,0000000044Hz,0000010494c,0000000.023s, 009.6C,00002195
2016-01-02 07:43:00 r, 14.15m,0000000194Hz,0000000000c,0000000.000s, 009.6C,00002195
2016-01-02 07:53:00 r, 12.31m,0000001071Hz,0000000000c,0000000.000s, 009.3C,00002195
2016-01-02 08:02:59 r, 10.42m,0000006072Hz,0000000000c,0000000.000s, 009.6C,00002195
2016-01-02 08:13:01 r, 08.84m,0000025956Hz,0000000000c,0000000.000s, 009.6C,00002195
2016-01-02 08:22:59 r, 07.73m,0000072218Hz,0000000000c,0000000.000s, 009.6C,00002195
2016-01-02 08:33:00 r, 06.97m,0000146091Hz,0000000000c,0000000.000s, 009.6C,00002195
2016-01-02 08:43:00 r, 06.43m,0000238626Hz,0000000000c,0000000.000s, 009.6C,00002195
2016-01-02 08:52:59 r, 06.07m,0000335672Hz,0000000000c,0000000.000s, 009.6C,00002195
2016-01-02 09:03:00 r, 00.00m,0000429604Hz,0000000000c,0000000.000s, 009.9C,00002195
2016-01-02 09:12:59 r, 00.00m,0000516221Hz,0000000000c,0000000.000s, 009.9C,00002195
2016-01-02 09:22:59 r, 00.00m,0000562089Hz,0000000000c,0000000.000s, 010.3C,00002195
2016-01-02 09:33:00 r, 00.00m,0000562045Hz,0000000000c,0000000.000s, 010.9C,00002195
2016-01-02 09:42:59 r, 00.00m,0000562222Hz,0000000000c,0000000.000s, 012.2C,00002195
2016-01-02 09:52:59 r, 00.00m,0000562472Hz,0000000000c,0000000.000s, 013.8C,00002195
2016-01-02 10:02:59 r, 00.00m,0000562614Hz,0000000000c,0000000.000s, 015.1C,00002195
2016-01-02 10:13:00 r, 00.00m,0000562772Hz,0000000000c,0000000.000s, 015.7C,00002195
2016-01-02 10:22:59 r, 00.00m,0000562824Hz,0000000000c,0000000.000s, 016.7C,00002195
2016-01-02 10:33:01 r, 00.00m,0000562959Hz,0000000000c,0000000.000s, 017.4C,00002195
2016-01-02 10:42:59 r, 00.00m,0000562842Hz,0000000000c,0000000.000s, 017.7C,00002195
2016-01-02 10:52:59 r, 00.00m,0000563028Hz,0000000000c,0000000.000s, 018.0C,00002195
2016-01-02 11:03:01 r, 00.00m,0000563034Hz,0000000000c,0000000.000s, 018.3C,00002195
2016-01-02 11:13:00 r, 00.00m,0000563071Hz,0000000000c,0000000.000s, 018.6C,00002195
2016-01-02 11:22:59 r, 00.00m,0000563124Hz,0000000000c,0000000.000s, 018.6C,00002195
2016-01-02 11:32:59 r, 00.00m,0000563150Hz,0000000000c,0000000.000s, 018.6C,00002195
2016-01-02 11:43:00 r, 00.00m,0000563055Hz,0000000000c,0000000.000s, 018.3C,00002195
2016-01-02 11:52:59 r, 00.00m,0000563063Hz,0000000000c,0000000.000s, 018.6C,00002195
2016-01-02 12:02:59 r, 00.00m,0000563192Hz,0000000000c,0000000.000s, 019.3C,00002195
2016-01-02 12:13:01 r, 00.00m,0000563143Hz,0000000000c,0000000.000s, 019.0C,00002195
2016-01-02 12:22:59 r, 00.00m,0000563092Hz,0000000000c,0000000.000s, 018.3C,00002195
2016-01-02 12:32:59 r, 00.00m,0000563070Hz,0000000000c,0000000.000s, 018.0C,00002195
2016-01-02 12:43:00 r, 00.00m,0000563045Hz,0000000000c,0000000.000s, 017.4C,00002195
2016-01-02 12:52:59 r, 00.00m,0000562869Hz,0000000000c,0000000.000s, 017.4C,00002195
2016-01-02 13:03:00 r, 00.00m,0000562940Hz,0000000000c,0000000.000s, 017.0C,00002195
2016-01-02 13:12:59 r, 00.00m,0000562879Hz,0000000000c,0000000.000s, 016.7C,00002195
2016-01-02 13:22:59 r, 00.00m,0000562835Hz,0000000000c,0000000.000s, 016.4C,00002195
2016-01-02 13:33:01 r, 00.00m,0000562747Hz,0000000000c,0000000.000s, 016.4C,00002195
2016-01-02 13:43:00 r, 00.00m,0000562832Hz,0000000000c,0000000.000s, 016.4C,00002195
2016-01-02 13:52:59 r, 00.00m,0000562887Hz,0000000000c,0000000.000s, 016.4C,00002195
2016-01-02 14:02:59 r, 00.00m,0000562765Hz,0000000000c,0000000.000s, 016.4C,00002195
2016-01-02 14:12:59 r, 00.00m,0000562765Hz,0000000000c,0000000.000s, 016.4C,00002195
2016-01-02 14:22:59 r, 00.00m,0000562801Hz,0000000000c,0000000.000s, 016.4C,00002195
2016-01-02 14:33:00 r, 00.00m,0000562850Hz,0000000000c,0000000.000s, 016.4C,00002195
2016-01-02 14:42:59 r, 00.00m,0000562789Hz,0000000000c,0000000.000s, 016.4C,00002195
2016-01-02 14:52:59 r, 00.00m,0000562822Hz,0000000000c,0000000.000s, 016.4C,00002195
2016-01-02 15:02:59 r, 00.00m,0000562761Hz,0000000000c,0000000.000s, 016.4C,00002195
2016-01-02 15:12:59 r, 00.00m,0000562795Hz,0000000000c,0000000.000s, 016.1C,00002195
2016-01-02 15:22:59 r, 00.00m,0000562754Hz,0000000000c,0000000.000s, 016.1C,00002195
2016-01-02 15:32:59 r, 00.00m,0000562789Hz,0000000000c,0000000.000s, 016.1C,00002195
2016-01-02 15:43:02 r, 00.00m,0000562741Hz,0000000000c,0000000.000s, 015.7C,00002195
2016-01-02 15:52:59 r, 00.00m,0000562769Hz,0000000000c,0000000.000s, 015.7C,00002195
2016-01-02 16:02:59 r, 00.00m,0000400110Hz,0000000000c,0000000.000s, 015.7C,00002195
2016-01-02 16:12:59 r, 06.26m,0000278706Hz,0000000000c,0000000.000s, 015.4C,00002195
2016-01-02 16:22:59 r, 06.64m,0000196315Hz,0000000000c,0000000.000s, 015.4C,00002195
2016-01-02 16:32:59 r, 07.23m,0000114270Hz,0000000000c,0000000.000s, 015.4C,00002195
2016-01-02 16:43:01 r, 07.96m,0000057983Hz,0000000000c,0000000.000s, 015.4C,00002195
2016-01-02 16:52:59 r, 09.11m,0000020266Hz,0000000000c,0000000.000s, 015.4C,00002195
2016-01-02 17:02:59 r, 10.57m,0000005299Hz,0000000000c,0000000.000s, 015.4C,00002195
2016-01-02 17:13:00 r, 12.17m,0000001214Hz,0000000000c,0000000.000s, 015.1C,00002195
2016-01-02 17:22:59 r, 13.21m,0000000462Hz,0000000000c,0000000.000s, 015.4C,00002195
2016-01-02 17:32:59 r, 13.62m,0000000317Hz,0000000000c,0000000.000s, 015.4C,00002195
2016-01-02 17:43:00 r, 13.76m,0000000278Hz,0000000000c,0000000.000s, 015.4C,00002195
2016-01-02 17:52:59 r, 13.72m,0000000289Hz,0000000000c,0000000.000s, 015.4C,00002195
2016-01-02 18:02:59 r, 13.83m,0000000261Hz,0000000000c,0000000.000s, 015.4C,00002195
2016-01-02 18:13:00 r, 13.83m,0000000261Hz,0000000000c,0000000.000s, 015.4C,00002195
2016-01-02 18:22:59 r, 13.76m,0000000278Hz,0000000000c,0000000.000s, 015.4C,00002195
2016-01-02 18:32:59 r, 13.85m,0000000257Hz,0000000000c,0000000.000s, 015.4C,00002195
2016-01-02 18:42:59 r, 13.84m,0000000259Hz,0000000000c,0000000.000s, 015.4C,00002195
2016-01-02 18:52:59 r, 14.01m,0000000222Hz,0000000000c,0000000.000s, 015.4C,00002195
2016-01-02 19:02:59 r, 13.86m,0000000253Hz,0000000000c,0000000.000s, 015.4C,00002195
2016-01-02 19:12:59 r, 13.94m,0000000236Hz,0000000000c,0000000.000s, 015.4C,00002195
2016-01-02 19:22:59 r, 13.92m,0000000240Hz,0000000000c,0000000.000s, 015.4C,00002195
2016-01-02 19:32:59 r, 13.97m,0000000230Hz,0000000000c,0000000.000s, 015.7C,00002195
2016-01-02 19:43:00 r, 13.86m,0000000253Hz,0000000000c,0000000.000s, 015.7C,00002195
2016-01-02 19:52:59 r, 13.79m,0000000270Hz,0000000000c,0000000.000s, 015.7C,00002195
2016-01-02 20:02:59 r, 13.75m,0000000283Hz,0000000000c,0000000.000s, 015.7C,00002195
2016-01-02 20:13:02 r, 13.82m,0000000264Hz,0000000000c,0000000.000s, 015.7C,00002195
2016-01-02 20:22:59 r, 14.10m,0000000203Hz,0000000000c,0000000.000s, 015.7C,00002195
2016-01-02 20:32:59 r, 13.76m,0000000278Hz,0000000000c,0000000.000s, 015.7C,00002195
2016-01-02 20:43:02 r, 13.75m,0000000282Hz,0000000000c,0000000.000s, 015.7C,00002195
2016-01-02 20:52:59 r, 13.72m,0000000288Hz,0000000000c,0000000.000s, 015.7C,00002195
2016-01-02 21:02:59 r, 13.88m,0000000250Hz,0000000000c,0000000.000s, 015.7C,00002195
2016-01-02 21:13:00 r, 13.84m,0000000259Hz,0000000000c,0000000.000s, 015.7C,00002195
2016-01-02 21:23:02 r, 13.93m,0000000239Hz,0000000000c,0000000.000s, 015.7C,00002195
2016-01-02 21:33:00 r, 13.95m,0000000234Hz,0000000000c,0000000.000s, 015.7C,00002195
2016-01-02 21:43:01 r, 14.08m,0000000207Hz,0000000000c,0000000.000s, 015.7C,00002195
2016-01-02 21:53:00 r, 13.93m,0000000238Hz,0000000000c,0000000.000s, 015.7C,00002195
2016-01-02 22:02:59 r, 14.17m,0000000190Hz,0000000000c,0000000.000s, 015.7C,00002195
2016-01-02 22:13:02 r, 14.22m,0000000182Hz,0000000000c,0000000.000s, 015.7C,00002195
2016-01-02 22:23:00 r, 14.51m,0000000140Hz,0000000000c,0000000.000s, 015.7C,00002195
2016-01-02 22:32:59 r, 14.48m,0000000144Hz,0000000000c,0000000.000s, 015.7C,00002195
2016-01-02 22:43:02 r, 14.67m,0000000120Hz,0000003835c,0000000.008s, 016.1C,00002195
2016-01-02 22:53:00 r, 14.75m,0000000111Hz,0000004155c,0000000.009s, 016.1C,00002195
2016-01-02 23:02:59 r, 14.53m,0000000137Hz,0000000000c,0000000.000s, 016.1C,00002195
2016-01-02 23:13:01 r, 14.72m,0000000115Hz,0000004001c,0000000.009s, 016.1C,00002195
2016-01-02 23:23:00 r, 14.29m,0000000171Hz,0000000000c,0000000.000s, 015.7C,00002195
2016-01-02 23:32:59 r, 14.47m,0000000145Hz,0000000000c,0000000.000s, 015.7C,00002195
2016-01-02 23:43:00 r, 14.59m,0000000130Hz,0000000000c,0000000.000s, 015.7C,00002195
2016-01-02 23:52:59 r, 14.77m,0000000111Hz,0000004203c,0000000.009s, 015.7C,00002195
